KB0DHM Weather Reports


time (UTC)temp
C
wind
direction
speed
KPH
gust
KPH
rain 1hr
cm
rain 24hr
cm
rain mn
cm
humidity
%
barometer
mb
20260502211551 20 69 0.0 1.6 0.05 0.05 0.05 30 1012.7
20260502210031 21 69 0.0 0.0 0.05 0.05 0.05 28 1013.1
20260502204535 21 69 0.0 0.0 0.00 0.00 0.00 28 1013.1
20260502203009 21 69 0.0 0.0 0.00 0.00 0.00 28 1013.5
20260502201510 20 69 0.0 1.6 0.00 0.00 0.00 30 1014.0
20260502200107 20 69 0.0 0.0 0.00 0.00 0.00 30 1014.2
20260502194603 19 68 0.0 4.8 0.00 0.00 0.00 31 1014.4
20260502193025 20 68 0.0 1.6 0.00 0.00 0.00 30 1015.0
20260502191523 18 68 0.0 1.6 0.00 0.00 0.00 31 1015.2
20260502190100 18 69 0.0 1.6 0.00 0.00 0.00 30 1015.6
20260502184559 17 69 0.0 3.2 0.00 0.00 0.00 32 1015.8
20260502183044 17 69 0.0 1.6 0.00 0.00 0.00 32 1016.2
20260502181534 17 69 0.0 0.0 0.00 0.00 0.00 32 1016.3
20260502163007 14 69 0.0 1.6 0.00 0.00 0.00 36 1018.2
20260502161501 13 69 0.0 0.0 0.00 0.00 0.00 38 1018.4
20260502151516 12 69 0.0 0.0 0.00 0.00 0.00 42 1019.0
20260502150130 11 69 0.0 0.0 0.00 0.00 0.00 42 1019.3
20260502123049 5 69 0.0 0.0 0.00 0.00 0.00 76 1020.2
20260502121557 3 69 0.0 0.0 0.00 0.00 0.00 82 1020.2
20260502114526 1 69 0.0 0.0 0.00 0.00 0.00 85 1020.1
20260502113008 0 69 0.0 0.0 0.00 0.00 0.00 87 1020.1
20260502111507 0 69 0.0 0.0 0.00 0.00 0.00 86 1020.0
20260502110050 0 69 0.0 0.0 0.00 0.00 0.00 85 1020.0
20260502104548 0 69 0.0 0.0 0.00 0.00 0.00 83 1020.0
20260502103056 0 69 0.0 0.0 0.00 0.00 0.00 83 1020.0
20260502101545 0 69 0.0 0.0 0.00 0.00 0.00 83 1020.0
20260502070050 2 69 0.0 0.0 0.00 0.00 0.00 76 1019.9
20260502064547 2 69 0.0 0.0 0.00 0.00 0.00 76 1020.0
20260502063054 2 69 0.0 0.0 0.00 0.00 0.00 74 1020.1
20260502061543 2 69 0.0 0.0 0.00 0.00 0.00 73 1020.1
20260502060024 2 69 0.0 0.0 0.00 0.00 0.00 72 1020.0
20260502054524 3 69 0.0 0.0 0.00 0.00 0.00 71 1020.0
20260502053003 3 69 0.0 0.0 0.00 0.00 0.00 70 1020.0
20260502051501 3 69 0.0 0.0 0.00 0.00 0.00 70 1020.1
20260502050048 3 69 0.0 0.0 0.00 0.00 0.00 71 1020.1
20260502044545 3 69 0.0 0.0 0.00 0.00 0.00 70 1020.1
20260502043055 3 69 0.0 0.0 0.00 0.00 0.00 68 1020.1
20260502041544 4 69 0.0 0.0 0.00 0.00 0.00 67 1020.0
20260502040049 5 69 0.0 0.0 0.00 0.00 0.00 66 1020.1
20260502034543 5 69 0.0 0.0 0.00 0.00 0.00 64 1020.1
20260502033044 5 69 0.0 0.0 0.00 0.00 0.00 61 1020.1
20260502031542 6 69 0.0 0.0 0.00 0.00 0.00 58 1020.1
20260502030024 6 69 0.0 0.0 0.00 0.00 0.00 55 1020.1
20260502024523 6 69 0.0 0.0 0.00 0.00 0.00 55 1020.1
20260502023005 7 69 0.0 0.0 0.00 0.00 0.00 55 1020.1
20260502021504 7 69 0.0 0.0 0.00 0.00 0.00 49 1020.0
20260502020104 8 69 0.0 0.0 0.00 0.00 0.00 48 1019.8
20260502014546 8 69 0.0 0.0 0.00 0.00 0.00 44 1019.7
20260502013053 9 69 0.0 0.0 0.00 0.00 0.00 39 1019.5
20260502011528 10 69 0.0 0.0 0.00 0.00 0.00 36 1019.5
20260502010029 10 69 0.0 0.0 0.00 0.00 0.00 34 1019.5
20260502004516 11 69 0.0 0.0 0.00 0.00 0.00 33 1019.4
20260502003015 11 69 0.0 0.0 0.00 0.00 0.00 34 1019.5
20260502001514 11 69 0.0 0.0 0.00 0.00 0.00 35 1019.4
20260502000013 11 69 0.0 1.6 0.00 0.00 0.00 33 1019.4
20260501234513 11 69 0.0 0.0 0.00 0.00 0.00 34 1019.5
20260501233012 12 69 0.0 1.6 0.00 0.00 0.00 31 1019.5
20260501231512 12 69 0.0 1.6 0.00 0.00 0.00 32 1019.5
20260501230011 12 69 0.0 1.6 0.00 0.00 0.00 32 1019.5
20260501224553 11 69 0.0 0.0 0.00 0.00 0.00 32 1019.5
20260501223102 11 69 0.0 0.0 0.00 0.00 0.00 32 1019.5
20260501221535 11 69 0.0 1.6 0.00 0.00 0.00 33 1019.6
20260501220032 11 68 0.0 0.0 0.00 0.00 0.00 34 1019.7
20260501214526 11 68 0.0 1.6 0.00 0.00 0.00 34 1019.8
20260501213011 11 68 0.0 0.0 0.00 0.00 0.00 34 1019.7